Flag for Israel Weather past 2 weeks in Modi'in-Maccabim-Re'ut, Israel

Now
84 °F

Scattered clouds.


Feels Like: 90 °F
Forecast: 72 / 88 °F
Wind: 6 mph from Southwest

Location: Ben Gurion International Airport

Current Time: Jul 24, 2014 at 9:59:22 AM

Latest Report: Jul 24, 2014 at 9:20 AM


Visibility: N/A

Pressure: 29.80 "Hg

Humidity: 66%

Dew point: 72 °F

Location of Modi'in-Maccabim-Re'utLocation

Historic Weather in Modi'in-Maccabim-Re'ut — Graph

°F

Modi'in-Maccabim-Re'ut temperature yesterday

Maximum temperature yesterday: 90 °F (at 12:20 PM)
Minimum temperature yesterday: 75 °F (at 2:50 AM)
Average temperature yesterday: 81 °F

Past Weeks' High & Low Weather Summary

 TemperatureHumidityPressure
High95 °F (Jul 12, 3:20 PM)89% (Jul 24, 3:20 AM)29.89 "Hg (Jul 24, 3:20 AM)
Low72 °F (Jul 10, 5:20 AM)34% (Jul 12, 3:20 PM)29.74 "Hg (Jul 9, 3:50 PM)
Average81 °F65%29.80 "Hg
* Reported Jul 9 8:50 AM — Jul 24 8:50 AM, Modi'in-Maccabim-Re'ut, Weather by CustomWeather, © 2014

Note: Actual official high and low records may vary slightly from our data, if they occured in-between our weather recording intervals... More about our weather records

Advertising

Modi'in-Maccabim-Re'ut weather history for previous 24 hours

 ConditionsComfort  
Time TempWeatherWind HumidityBarometerVisibility
8:50 AM
Jul 24
82 °FScattered clouds.6 mph70%29.80 "HgN/A
8:20 AM81 °FPassing clouds.7 mph74%29.80 "HgN/A
7:50 AM79 °FPassing clouds.7 mph79%29.80 "HgN/A
7:20 AM77 °FSunny.7 mph79%29.80 "Hg10 mi
6:50 AM77 °FPassing clouds.6 mph83%29.80 "Hg6 mi
6:20 AM75 °FPassing clouds.7 mphN/A29.80 "Hg6 mi
5:50 AM75 °FPassing clouds.6 mphN/A29.77 "Hg6 mi
5:20 AM75 °FPassing clouds.6 mphN/A29.77 "Hg6 mi
4:50 AM75 °FPassing clouds.7 mphN/A29.77 "HgN/A
4:20 AM75 °FPassing clouds.7 mphN/A29.77 "HgN/A
3:50 AM75 °FPassing clouds.6 mphN/A29.77 "HgN/A
3:20 AM75 °FPassing clouds.3 mph89%29.77 "HgN/A
2:50 AM77 °FPassing clouds.5 mph83%29.80 "HgN/A
2:20 AM77 °FPassing clouds.5 mph83%29.80 "HgN/A
1:50 AM77 °FPassing clouds.6 mph83%29.80 "HgN/A
1:20 AM77 °FPassing clouds.5 mph83%29.80 "HgN/A
12:50 AM77 °FClear.6 mph83%29.80 "Hg10 mi
12:20 AM79 °FClear.3 mph79%29.80 "Hg10 mi
11:50 PM
Jul 23
79 °FClear.3 mph79%29.83 "Hg10 mi
11:20 PM79 °FClear.3 mph79%29.83 "Hg10 mi
10:50 PM79 °FPassing clouds.3 mph79%29.83 "HgN/A
10:20 PM79 °FPassing clouds.3 mph79%29.83 "HgN/A
9:50 PM81 °FClear.5 mph74%29.83 "Hg10 mi
9:20 PM81 °FClear.5 mph74%29.83 "Hg10 mi
8:50 PM81 °FClear.5 mph74%29.80 "Hg10 mi
8:20 PM81 °FSunny.6 mph74%29.80 "Hg10 mi
7:50 PM82 °FPassing clouds.7 mph74%29.80 "HgN/A
7:20 PM82 °FPassing clouds.8 mph74%29.80 "HgN/A
6:50 PM84 °FPassing clouds.9 mph70%29.80 "HgN/A
6:20 PM86 °FPassing clouds.10 mph66%29.77 "HgN/A
5:50 PM86 °FPassing clouds.12 mph66%29.77 "HgN/A
5:20 PM88 °FPassing clouds.13 mph62%29.77 "HgN/A
4:50 PM88 °FPassing clouds.13 mph59%29.77 "HgN/A
4:20 PM88 °FPassing clouds.14 mph62%29.77 "HgN/A
1:20 PM90 °FPassing clouds.12 mph55%29.77 "HgN/A
12:20 PM90 °FPassing clouds.9 mph55%29.80 "HgN/A
Weather by CustomWeather, © 2014

See weather overviewHow to use our weather pages